Time,TemperatureF,DewpointF,PressureIn,WindDirection,WindDirectionDegrees,WindSpeedMPH,WindSpeedGustMPH,Humidity,HourlyPrecipIn,Conditions,Clouds,dailyrainin,SoftwareType,DateUTC
2013-01-07 00:23:00,39.0,-99.9,-100.00,West,276,-999.0,-999.0,-999,-99.99,,,-99.99,,2013-01-07 05:23:00,
2013-01-07 00:33:00,39.0,-99.9,-100.00,West,276,-999.0,-999.0,-999,-99.99,,,-99.99,,2013-01-07 05:33:00,
2013-01-07 00:43:00,39.0,-99.9,-100.00,West,276,-999.0,-999.0,-999,-99.99,,,-99.99,,2013-01-07 05:43:00,
2013-01-07 00:52:00,37.0,-99.9,-100.00,WNW,302,-999.0,-999.0,-999,-99.99,,,-99.99,,2013-01-07 05:52:00,
2013-01-07 01:33:00,37.0,-99.9,-100.00,WNW,302,-999.0,-999.0,-999,-99.99,,,-99.99,,2013-01-07 06:33:00,
2013-01-07 01:43:00,37.0,-99.9,-100.00,WNW,302,-999.0,-999.0,-999,-99.99,,,-99.99,,2013-01-07 06:43:00,
2013-01-07 01:52:00,36.0,-99.9,-100.00,West,271,-999.0,-999.0,-999,-99.99,,,-99.99,,2013-01-07 06:52:00,
2013-01-07 02:23:00,36.0,-99.9,-100.00,West,271,-999.0,-999.0,-999,-99.99,,,-99.99,,2013-01-07 07:23:00,
2013-01-07 02:33:00,36.0,-99.9,-100.00,West,271,-999.0,-999.0,-999,-99.99,,,-99.99,,2013-01-07 07:33:00,
2013-01-07 02:43:00,36.0,-99.9,-100.00,West,271,-999.0,-999.0,-999,-99.99,,,-99.99,,2013-01-07 07:43:00,
2013-01-07 02:52:00,34.0,-99.9,-100.00,WNW,282,-999.0,-999.0,-999,-99.99,,,-99.99,,2013-01-07 07:52:00,
2013-01-07 03:22:00,34.0,-99.9,-100.00,WNW,282,-999.0,-999.0,-999,-99.99,,,-99.99,,2013-01-07 08:22:00,
2013-01-07 03:33:00,34.0,-99.9,-100.00,WNW,282,-999.0,-999.0,-999,-99.99,,,-99.99,,2013-01-07 08:33:00,
2013-01-07 03:43:00,34.0,-99.9,-100.00,WNW,282,-999.0,-999.0,-999,-99.99,,,-99.99,,2013-01-07 08:43:00,
2013-01-07 03:52:00,34.0,-99.9,-100.00,WNW,296,3.0,8.0,-999,-99.99,,,-99.99,,2013-01-07 08:52:00,
2013-01-07 04:23:00,34.0,-99.9,-100.00,WNW,296,3.0,8.0,-999,-99.99,,,-99.99,,2013-01-07 09:23:00,
2013-01-07 04:33:00,34.0,-99.9,-100.00,WNW,296,3.0,8.0,-999,-99.99,,,-99.99,,2013-01-07 09:33:00,
2013-01-07 04:43:00,34.0,-99.9,-100.00,WNW,296,3.0,8.0,-999,-99.99,,,-99.99,,2013-01-07 09:43:00,
2013-01-07 04:52:00,34.0,-99.9,-100.00,West,272,-999.0,-999.0,-999,-99.99,,,-99.99,,2013-01-07 09:52:00,
2013-01-07 05:23:00,34.0,-99.9,-100.00,West,272,-999.0,-999.0,-999,-99.99,,,-99.99,,2013-01-07 10:23:00,
2013-01-07 05:33:00,34.0,-99.9,-100.00,West,272,-999.0,-999.0,-999,-99.99,,,-99.99,,2013-01-07 10:33:00,
2013-01-07 05:43:00,34.0,-99.9,-100.00,West,272,-999.0,-999.0,-999,-99.99,,,-99.99,,2013-01-07 10:43:00,
2013-01-07 05:52:00,32.0,-99.9,-100.00,West,276,-999.0,-999.0,-999,-99.99,,,-99.99,,2013-01-07 10:52:00,
2013-01-07 06:23:00,32.0,-99.9,-100.00,West,276,-999.0,-999.0,-999,-99.99,,,-99.99,,2013-01-07 11:23:00,
2013-01-07 06:33:00,32.0,-99.9,-100.00,West,276,-999.0,-999.0,-999,-99.99,,,-99.99,,2013-01-07 11:33:00,
2013-01-07 06:43:00,32.0,-99.9,-100.00,West,276,-999.0,-999.0,-999,-99.99,,,-99.99,,2013-01-07 11:43:00,
2013-01-07 06:52:00,32.0,-99.9,-100.00,West,275,-999.0,-999.0,-999,-99.99,,,-99.99,,2013-01-07 11:52:00,
2013-01-07 07:23:00,32.0,-99.9,-100.00,West,275,-999.0,-999.0,-999,-99.99,,,-99.99,,2013-01-07 12:23:00,
2013-01-07 07:33:00,32.0,-99.9,-100.00,West,275,-999.0,-999.0,-999,-99.99,,,-99.99,,2013-01-07 12:33:00,
2013-01-07 07:43:00,32.0,-99.9,-100.00,West,275,-999.0,-999.0,-999,-99.99,,,-99.99,,2013-01-07 12:43:00,
2013-01-07 07:52:00,36.0,-99.9,-100.00,WNW,289,7.0,9.0,-999,-99.99,,,-99.99,,2013-01-07 12:52:00,
2013-01-07 08:23:00,36.0,-99.9,-100.00,WNW,289,7.0,9.0,-999,-99.99,,,-99.99,,2013-01-07 13:23:00,
2013-01-07 08:33:00,36.0,-99.9,-100.00,WNW,289,7.0,9.0,-999,-99.99,,,-99.99,,2013-01-07 13:33:00,
2013-01-07 08:43:00,36.0,-99.9,-100.00,WNW,289,7.0,9.0,-999,-99.99,,,-99.99,,2013-01-07 13:43:00,
2013-01-07 08:52:00,41.0,-99.9,-100.00,NW,316,5.0,10.0,-999,-99.99,,,-99.99,,2013-01-07 13:52:00,
2013-01-07 09:23:00,41.0,-99.9,-100.00,NW,316,5.0,10.0,-999,-99.99,,,-99.99,,2013-01-07 14:23:00,
2013-01-07 09:33:00,41.0,-99.9,-100.00,NW,316,5.0,10.0,-999,-99.99,,,-99.99,,2013-01-07 14:33:00,
2013-01-07 09:43:00,41.0,-99.9,-100.00,NW,316,5.0,10.0,-999,-99.99,,,-99.99,,2013-01-07 14:43:00,
2013-01-07 09:52:00,44.0,-99.9,-100.00,West,278,8.0,18.0,-999,-99.99,,,-99.99,,2013-01-07 14:52:00,
2013-01-07 10:23:00,44.0,-99.9,-100.00,West,278,8.0,18.0,-999,-99.99,,,-99.99,,2013-01-07 15:23:00,
2013-01-07 10:33:00,44.0,-99.9,-100.00,West,278,8.0,18.0,-999,-99.99,,,-99.99,,2013-01-07 15:33:00,
2013-01-07 10:43:00,44.0,-99.9,-100.00,West,278,8.0,18.0,-999,-99.99,,,-99.99,,2013-01-07 15:43:00,
2013-01-07 10:52:00,45.0,-99.9,-100.00,NW,306,10.0,19.0,-999,-99.99,,,-99.99,,2013-01-07 15:52:00,
2013-01-07 11:23:00,45.0,-99.9,-100.00,NW,306,10.0,19.0,-999,-99.99,,,-99.99,,2013-01-07 16:23:00,
2013-01-07 11:33:00,45.0,-99.9,-100.00,NW,306,10.0,19.0,-999,-99.99,,,-99.99,,2013-01-07 16:33:00,
2013-01-07 11:43:00,45.0,-99.9,-100.00,NW,306,10.0,19.0,-999,-99.99,,,-99.99,,2013-01-07 16:43:00,
2013-01-07 11:52:00,46.0,-99.9,-100.00,WNW,303,16.0,18.0,-999,-99.99,,,-99.99,,2013-01-07 16:52:00,
2013-01-07 12:23:00,46.0,-99.9,-100.00,WNW,303,16.0,18.0,-999,-99.99,,,-99.99,,2013-01-07 17:23:00,
2013-01-07 12:33:00,46.0,-99.9,-100.00,WNW,303,16.0,18.0,-999,-99.99,,,-99.99,,2013-01-07 17:33:00,
2013-01-07 12:43:00,46.0,-99.9,-100.00,WNW,303,16.0,18.0,-999,-99.99,,,-99.99,,2013-01-07 17:43:00,
2013-01-07 12:52:00,46.0,-99.9,-100.00,WNW,303,6.0,18.0,-999,-99.99,,,-99.99,,2013-01-07 17:52:00,
2013-01-07 13:24:00,46.0,-99.9,-100.00,WNW,303,6.0,18.0,-999,-99.99,,,-99.99,,2013-01-07 18:24:00,
2013-01-07 13:33:00,46.0,-99.9,-100.00,WNW,303,6.0,18.0,-999,-99.99,,,-99.99,,2013-01-07 18:33:00,
2013-01-07 13:43:00,46.0,-99.9,-100.00,WNW,303,6.0,18.0,-999,-99.99,,,-99.99,,2013-01-07 18:43:00,
2013-01-07 13:52:00,47.0,-99.9,-100.00,West,269,8.0,11.0,-999,-99.99,,,-99.99,,2013-01-07 18:52:00,
2013-01-07 14:23:00,47.0,-99.9,-100.00,West,269,8.0,11.0,-999,-99.99,,,-99.99,,2013-01-07 19:23:00,
2013-01-07 14:33:00,47.0,-99.9,-100.00,West,269,8.0,11.0,-999,-99.99,,,-99.99,,2013-01-07 19:33:00,
2013-01-07 14:43:00,47.0,-99.9,-100.00,West,269,8.0,11.0,-999,-99.99,,,-99.99,,2013-01-07 19:43:00,
2013-01-07 14:52:00,46.0,-99.9,-100.00,NNW,331,8.0,8.0,-999,-99.99,,,-99.99,,2013-01-07 19:52:00,
2013-01-07 15:23:00,46.0,-99.9,-100.00,NNW,331,8.0,8.0,-999,-99.99,,,-99.99,,2013-01-07 20:23:00,
2013-01-07 15:33:00,46.0,-99.9,-100.00,NNW,331,8.0,8.0,-999,-99.99,,,-99.99,,2013-01-07 20:33:00,
2013-01-07 15:43:00,46.0,-99.9,-100.00,NNW,331,8.0,8.0,-999,-99.99,,,-99.99,,2013-01-07 20:43:00,
2013-01-07 15:52:00,46.0,-99.9,-100.00,West,281,6.0,8.0,-999,-99.99,,,-99.99,,2013-01-07 20:52:00,
2013-01-07 16:23:00,46.0,-99.9,-100.00,West,281,6.0,8.0,-999,-99.99,,,-99.99,,2013-01-07 21:23:00,
2013-01-07 16:33:00,46.0,-99.9,-100.00,West,281,6.0,8.0,-999,-99.99,,,-99.99,,2013-01-07 21:33:00,
2013-01-07 16:43:00,46.0,-99.9,-100.00,West,281,6.0,8.0,-999,-99.99,,,-99.99,,2013-01-07 21:43:00,
2013-01-07 16:52:00,43.0,-99.9,-100.00,West,272,-999.0,-999.0,-999,-99.99,,,-99.99,,2013-01-07 21:52:00,
2013-01-07 17:23:00,43.0,-99.9,-100.00,West,272,-999.0,-999.0,-999,-99.99,,,-99.99,,2013-01-07 22:23:00,
2013-01-07 17:33:00,43.0,-99.9,-100.00,West,272,-999.0,-999.0,-999,-99.99,,,-99.99,,2013-01-07 22:33:00,
2013-01-07 17:43:00,43.0,-99.9,-100.00,West,272,-999.0,-999.0,-999,-99.99,,,-99.99,,2013-01-07 22:43:00,
2013-01-07 17:52:00,39.0,-99.9,-100.00,West,272,-999.0,-999.0,-999,-99.99,,,-99.99,,2013-01-07 22:52:00,
2013-01-07 18:23:00,39.0,-99.9,-100.00,West,272,-999.0,-999.0,-999,-99.99,,,-99.99,,2013-01-07 23:23:00,
2013-01-07 18:33:00,39.0,-99.9,-100.00,West,272,-999.0,-999.0,-999,-99.99,,,-99.99,,2013-01-07 23:33:00,
2013-01-07 18:43:00,39.0,-99.9,-100.00,West,272,-999.0,-999.0,-999,-99.99,,,-99.99,,2013-01-07 23:43:00,
2013-01-07 18:52:00,36.0,-99.9,-100.00,West,272,-999.0,-999.0,-999,-99.99,,,-99.99,,2013-01-07 23:52:00,
2013-01-07 19:23:00,36.0,-99.9,-100.00,West,272,-999.0,-999.0,-999,-99.99,,,-99.99,,2013-01-08 00:23:00,
2013-01-07 19:33:00,36.0,-99.9,-100.00,West,272,-999.0,-999.0,-999,-99.99,,,-99.99,,2013-01-08 00:33:00,
2013-01-07 19:43:00,36.0,-99.9,-100.00,West,272,-999.0,-999.0,-999,-99.99,,,-99.99,,2013-01-08 00:43:00,
2013-01-07 19:52:00,35.0,-99.9,-100.00,West,272,-999.0,-999.0,-999,-99.99,,,-99.99,,2013-01-08 00:52:00,
2013-01-07 20:23:00,35.0,-99.9,-100.00,West,272,-999.0,-999.0,-999,-99.99,,,-99.99,,2013-01-08 01:23:00,
2013-01-07 20:33:00,35.0,-99.9,-100.00,West,272,-999.0,-999.0,-999,-99.99,,,-99.99,,2013-01-08 01:33:00,
2013-01-07 20:43:00,35.0,-99.9,-100.00,West,272,-999.0,-999.0,-999,-99.99,,,-99.99,,2013-01-08 01:43:00,
2013-01-07 20:52:00,33.0,-99.9,-100.00,West,272,-999.0,-999.0,-999,-99.99,,,-99.99,,2013-01-08 01:52:00,
2013-01-07 21:23:00,33.0,-99.9,-100.00,West,272,-999.0,-999.0,-999,-99.99,,,-99.99,,2013-01-08 02:23:00,
2013-01-07 21:33:00,33.0,-99.9,-100.00,West,272,-999.0,-999.0,-999,-99.99,,,-99.99,,2013-01-08 02:33:00,
2013-01-07 21:43:00,33.0,-99.9,-100.00,West,272,-999.0,-999.0,-999,-99.99,,,-99.99,,2013-01-08 02:43:00,
2013-01-07 21:52:00,32.0,-99.9,-100.00,West,272,-999.0,-999.0,-999,-99.99,,,-99.99,,2013-01-08 02:52:00,
2013-01-07 22:22:00,32.0,-99.9,-100.00,West,272,-999.0,-999.0,-999,-99.99,,,-99.99,,2013-01-08 03:22:00,
2013-01-07 22:33:00,32.0,-99.9,-100.00,West,272,-999.0,-999.0,-999,-99.99,,,-99.99,,2013-01-08 03:33:00,
2013-01-07 22:43:00,32.0,-99.9,-100.00,West,272,-999.0,-999.0,-999,-99.99,,,-99.99,,2013-01-08 03:43:00,
2013-01-07 22:52:00,32.0,-99.9,-100.00,West,272,-999.0,-999.0,-999,-99.99,,,-99.99,,2013-01-08 03:52:00,
2013-01-07 23:23:00,32.0,-99.9,-100.00,West,272,-999.0,-999.0,-999,-99.99,,,-99.99,,2013-01-08 04:23:00,
2013-01-07 23:33:00,32.0,-99.9,-100.00,West,272,-999.0,-999.0,-999,-99.99,,,-99.99,,2013-01-08 04:33:00,
2013-01-07 23:43:00,32.0,-99.9,-100.00,West,272,-999.0,-999.0,-999,-99.99,,,-99.99,,2013-01-08 04:43:00,
2013-01-07 23:52:00,30.0,-99.9,-100.00,West,272,-999.0,-999.0,-999,-99.99,,,-99.99,,2013-01-08 04:52:00,